Printer-friendly version

IAU Minor Planet Center

Minor Planet Center

MPEC 2005-S27 : 2005 SF

The following Minor Planet Electronic Circular may be linked-to from your own Web pages, but must not otherwise be redistributed electronically.


Read MPEC 2005-S26 Read MPEC 2005-S28


M.P.E.C. 2005-S27                                Issued 2005 Sept. 22, 17:37 UT

     The Minor Planet Electronic Circulars contain information on unusual
         minor planets and routine data on comets.  They are published
   on behalf of Commission 20 of the International Astronomical Union by the
          Minor Planet Center, Smithsonian Astrophysical Observatory,
                          Cambridge, MA 02138, U.S.A.

                  Supported in part by the Brinson Foundation
             Prepared using the Tamkin Foundation Computer Network

                              MPC@CFA.HARVARD.EDU
          URL http://cfa-www.harvard.edu/iau/mpc.html  ISSN 1523-6714

                                    2005 SF

Observations:
     K05S00F* C2005 09 21.57759 21 43 06.81 -58 42 19.0          18.5 V ES027E12
     K05S00F  C2005 09 21.59150 21 43 14.55 -58 40 53.9          18.4 V ES027E12
     K05S00F  C2005 09 21.60558 21 43 22.40 -58 39 27.6          18.0 V ES027E12
     K05S00F  C2005 09 21.61954 21 43 30.18 -58 38 01.7          18.4 V ES027E12
     K05S00F 1C2005 09 22.38370 21 50 27.38 -57 22 24.4          18.3 R ES027413
     K05S00F 1C2005 09 22.38503 21 50 28.02 -57 22 16.8          18.4 R ES027413
     K05S00F 1C2005 09 22.50420 21 51 25.669-57 10 46.03         18.4 R ES027413
     K05S00F 1C2005 09 22.50819 21 51 27.582-57 10 22.79         18.5 R ES027413
     K05S00F 1C2005 09 22.69062 21 52 54.551-56 52 28.48         18.4 R ES027413
     K05S00F 1C2005 09 22.69460 21 52 56.474-56 52 04.96         18.5 R ES027413

Observer details:
413 Siding Spring.  Observer R. H. McNaught.  1.0-m f/8 reflector + CCD.
E12 Siding Spring Survey.  Observer G. J. Garradd.  Measurers E. C. Beshore,
    C. M. Casey, E. J. Christensen, G. J. Garradd, A. D. Grauer, R. E. Hill,
    S. M. Larson, R. H. McNaught.  0.5-m Uppsala Schmidt + CCD.

Orbital elements:
2005 SF
Epoch 2005 Aug. 18.0 TT = JDT 2453600.5                 MPC
M   9.31205              (2000.0)            P               Q
n   0.36439384     Peri.  149.08157     -0.17543210     +0.97092128
a   1.9412823      Node   110.38783     -0.93504909     -0.11254783
e   0.6496907      Incl.   10.00788     -0.30806944     -0.21129331
P   2.70           H   19.3           G   0.15           U   7
Residuals in seconds of arc
050921 E12  0.1-  0.0     050922 413  0.0   0.0     050922 413  0.1-  0.0
050921 E12  0.1-  0.1-    050922 413  0.1-  0.0     050922 413  0.1+  0.0
050921 E12  0.0   0.1-    050922 413  0.0   0.0
050921 E12  0.1+  0.2+    050922 413  0.0   0.0

Ephemeris:
2005 SF                  a,e,i = 1.94, 0.65, 10                  q = 0.6800
Date    TT    R. A. (2000) Decl.     Delta      r     Elong.  Phase     V
2005 09 17    20 35.63   -66 43.5    0.221    1.095   108.2    60.7    18.4
2005 09 27    22 19.45   -50 35.0    0.314    1.200   122.4    44.9    18.9
2005 10 07    22 50.19   -40 00.9    0.431    1.304   126.8    37.9    19.6
2005 10 17    23 07.08   -32 55.1    0.564    1.406   126.2    34.9    20.2
2005 10 27    23 19.89   -27 39.4    0.710    1.505   123.1    33.6    20.8
2005 11 06    23 31.44   -23 26.1    0.868    1.600   118.6    33.0    21.4
2005 11 16    23 42.78   -19 51.4    1.037    1.692   113.3    32.5    21.9

Kyle E. Smalley              (C) Copyright 2005 MPC           M.P.E.C. 2005-S27

Read MPEC 2005-S26 Read MPEC 2005-S28


Our Web policy. Index to the CBAT/MPC/ICQ pages.


Valid HTML 4.01!